When you browse on this site, cookies collect data to enhance your experience and personalize the content and advertising you see.
Visit our Privacy Policy to learn more. By continuing to use the site, you agree to this use of cookies and data.
  • Em Portugal
  • Lista de países
  • Para 7 dias
  • Temperatura da água
  • Mapas de satélite
  • Mapa do tempo
  • Widgets de tempo
  • user-avatar
    Iniciar Sessão

    Previsão horária em Yamagata

    Hoje, 21 Abril, Domingo

    Tempo Temperatura Precipitação Vento Pressão Humidade
    00:00 +5°C° 0 mm 0 m/s 718 mmHg 42%
    01:00 +5°C° 0 mm 0 m/s 718 mmHg 40%
    02:00 +5°C° 0 mm 0 m/s 718 mmHg 39%
    03:00 +5°C° 0 mm 0 m/s 718 mmHg 36%
    04:00 +6°C° 0 mm 0 m/s 718 mmHg 37%
    05:00 +6°C° 0 mm 0 m/s 718 mmHg 38%
    06:00 +6°C° 0 mm 0 m/s 718 mmHg 39%
    07:00 +10°C° 0 mm 1 m/s 718 mmHg 36%
    08:00 +13°C° 0 mm 1 m/s 718 mmHg 33%
    09:00 +15°C° 0 mm 1 m/s 719 mmHg 30%
    10:00 +16°C° 0 mm 1 m/s 719 mmHg 32%
    11:00 +18°C° 0 mm 2 m/s 718 mmHg 35%
    12:00 +19°C° 0 mm 2 m/s 718 mmHg 38%
    13:00 +18°C° 0 mm 2 m/s 718 mmHg 43%
    14:00 +18°C° 0 mm 2 m/s 718 mmHg 49%
    15:00 +17°C° 0 mm 2 m/s 717 mmHg 54%
    16:00 +16°C° 0 mm 2 m/s 717 mmHg 59%
    17:00 +15°C° 0 mm 2 m/s 717 mmHg 64%
    18:00 +14°C° 0 mm 1 m/s 717 mmHg 70%
    19:00 +13°C° 0 mm 1 m/s 718 mmHg 72%
    20:00 +12°C° 0 mm 1 m/s 718 mmHg 74%
    21:00 +12°C° 0 mm 1 m/s 718 mmHg 77%
    22:00 +12°C° 0 mm 1 m/s 718 mmHg 78%
    23:00 +11°C° 0 mm 1 m/s 718 mmHg 79%

    Amanhã, 22 Abril, Segunda-feira

    Tempo Temperatura Precipitação Vento Pressão Humidade
    00:00 +11°C° 0 mm 1 m/s 718 mmHg 81%
    01:00 +10°C° 0 mm 1 m/s 717 mmHg 83%
    02:00 +10°C° 0 mm 1 m/s 717 mmHg 86%
    03:00 +9°C° 0 mm 1 m/s 717 mmHg 88%
    04:00 +9°C° 0 mm 1 m/s 718 mmHg 88%
    05:00 +10°C° 0 mm 1 m/s 718 mmHg 87%
    06:00 +10°C° 0 mm 1 m/s 718 mmHg 86%
    07:00 +12°C° 0 mm 1 m/s 719 mmHg 76%
    08:00 +14°C° 0 mm 2 m/s 719 mmHg 66%
    09:00 +16°C° 0 mm 2 m/s 719 mmHg 56%
    10:00 +17°C° 0 mm 3 m/s 720 mmHg 52%
    11:00 +17°C° 0 mm 3 m/s 720 mmHg 48%
    12:00 +18°C° 0 mm 4 m/s 720 mmHg 43%
    13:00 +18°C° 0 mm 4 m/s 720 mmHg 41%
    14:00 +18°C° 0 mm 4 m/s 720 mmHg 38%
    15:00 +18°C° 0 mm 4 m/s 720 mmHg 36%
    16:00 +16°C° 0 mm 3 m/s 720 mmHg 42%
    17:00 +14°C° 0 mm 2 m/s 720 mmHg 47%
    18:00 +12°C° 0 mm 2 m/s 721 mmHg 53%
    19:00 +10°C° 0 mm 2 m/s 721 mmHg 58%
    20:00 +9°C° 0 mm 1 m/s 722 mmHg 63%
    21:00 +8°C° 0 mm 1 m/s 722 mmHg 68%
    22:00 +8°C° 0 mm 1 m/s 722 mmHg 65%
    23:00 +7°C° 0 mm 1 m/s 722 mmHg 61%

    Depois de amanhã, 23 Abril, Terça-feira

    Tempo Temperatura Precipitação Vento Pressão Humidade
    00:00 +5°C° 0 mm 0 m/s 722 mmHg 58%
    01:00 +5°C° 0 mm 0 m/s 722 mmHg 55%
    02:00 +5°C° 0 mm 0 m/s 722 mmHg 52%
    03:00 +5°C° 0 mm 0 m/s 722 mmHg 49%
    04:00 +5°C° 0 mm 0 m/s 722 mmHg 50%
    05:00 +6°C° 0 mm 0 m/s 723 mmHg 51%
    06:00 +7°C° 0 mm 1 m/s 723 mmHg 51%
    07:00 +10°C° 0 mm 1 m/s 723 mmHg 49%
    08:00 +13°C° 0 mm 2 m/s 724 mmHg 46%
    09:00 +16°C° 0 mm 2 m/s 724 mmHg 44%
    10:00 +17°C° 0 mm 2 m/s 724 mmHg 43%
    11:00 +18°C° 0 mm 3 m/s 724 mmHg 43%
    12:00 +20°C° 0 mm 3 m/s 723 mmHg 42%
    13:00 +21°C° 0 mm 3 m/s 723 mmHg 41%
    14:00 +21°C° 0 mm 2 m/s 723 mmHg 41%
    15:00 +23°C° 0 mm 2 m/s 722 mmHg 40%
    16:00 +20°C° 0 mm 2 m/s 722 mmHg 47%
    17:00 +19°C° 0 mm 1 m/s 722 mmHg 55%
    18:00 +16°C° 0 mm 1 m/s 722 mmHg 62%
    19:00 +15°C° 0 mm 1 m/s 722 mmHg 67%
    20:00 +14°C° 0 mm 1 m/s 722 mmHg 72%
    21:00 +11°C° 0 mm 0 m/s 723 mmHg 77%
    22:00 +12°C° 0 mm 1 m/s 722 mmHg 76%
    23:00 +12°C° 0 mm 1 m/s 722 mmHg 76%

    24 Abril, Quarta-feira

    Tempo Temperatura Precipitação Vento Pressão Humidade
    00:00 +12°C° 0 mm 1 m/s 722 mmHg 75%
    01:00 +12°C° 0 mm 1 m/s 722 mmHg 77%
    02:00 +12°C° 0 mm 1 m/s 721 mmHg 78%
    03:00 +12°C° 0 mm 1 m/s 721 mmHg 79%
    04:00 +12°C° 0 mm 1 m/s 721 mmHg 78%
    05:00 +13°C° 0 mm 1 m/s 721 mmHg 76%
    06:00 +14°C° 0 mm 1 m/s 721 mmHg 75%
    07:00 +18°C° 0 mm 1 m/s 722 mmHg 66%
    08:00 +21°C° 0 mm 1 m/s 722 mmHg 57%
    09:00 +24°C° 0 mm 1 m/s 722 mmHg 48%
    10:00 +24°C° 0 mm 1 m/s 722 mmHg 48%
    11:00 +24°C° 0 mm 1 m/s 721 mmHg 48%
    12:00 +25°C° 0 mm 1 m/s 721 mmHg 49%
    13:00 +24°C° 0.2 mm 1 m/s 720 mmHg 51%
    14:00 +24°C° 0.2 mm 1 m/s 720 mmHg 53%
    15:00 +23°C° 0.2 mm 1 m/s 719 mmHg 55%
    16:00 +22°C° 0.5 mm 1 m/s 719 mmHg 63%
    17:00 +20°C° 0.5 mm 1 m/s 719 mmHg 72%
    18:00 +18°C° 0.5 mm 1 m/s 719 mmHg 80%
    19:00 +18°C° 0.6 mm 1 m/s 719 mmHg 84%
    20:00 +16°C° 0.6 mm 1 m/s 719 mmHg 87%
    21:00 +15°C° 0.6 mm 1 m/s 718 mmHg 90%
    22:00 +15°C° 0.6 mm 1 m/s 718 mmHg 91%
    23:00 +15°C° 0.6 mm 1 m/s 717 mmHg 92%

    25 Abril, Quinta-feira

    Tempo Temperatura Precipitação Vento Pressão Humidade
    00:00 +15°C° 0.6 mm 1 m/s 717 mmHg 92%
    01:00 +15°C° 0.7 mm 1 m/s 716 mmHg 93%
    02:00 +14°C° 0.7 mm 0 m/s 716 mmHg 93%
    03:00 +13°C° 0.7 mm 0 m/s 716 mmHg 93%
    04:00 +13°C° 0.6 mm 0 m/s 715 mmHg 93%
    05:00 +13°C° 0.6 mm 0 m/s 715 mmHg 93%
    06:00 +13°C° 0.6 mm 0 m/s 715 mmHg 93%
    07:00 +14°C° 0.3 mm 0 m/s 715 mmHg 89%
    08:00 +15°C° 0.3 mm 0 m/s 715 mmHg 84%
    09:00 +16°C° 0.3 mm 0 m/s 715 mmHg 80%
    10:00 +17°C° 0.4 mm 0 m/s 715 mmHg 78%
    11:00 +17°C° 0.4 mm 0 m/s 714 mmHg 75%
    12:00 +18°C° 0.4 mm 0 m/s 714 mmHg 73%
    13:00 +18°C° 0.2 mm 0 m/s 714 mmHg 73%
    14:00 +18°C° 0.2 mm 0 m/s 713 mmHg 72%
    15:00 +18°C° 0.2 mm 0 m/s 713 mmHg 72%
    16:00 +17°C° 0.1 mm 0 m/s 713 mmHg 76%
    17:00 +16°C° 0.1 mm 0 m/s 713 mmHg 80%
    18:00 +16°C° 0.1 mm 1 m/s 712 mmHg 84%
    19:00 +16°C° 0 mm 1 m/s 712 mmHg 87%
    20:00 +15°C° 0 mm 1 m/s 712 mmHg 90%
    21:00 +15°C° 0 mm 1 m/s 713 mmHg 93%
    22:00 +14°C° 0 mm 1 m/s 712 mmHg 93%
    23:00 +14°C° 0 mm 2 m/s 711 mmHg 93%

    26 Abril, Sexta-feira

    Tempo Temperatura Precipitação Vento Pressão Humidade
    00:00 +14°C° 0 mm 2 m/s 711 mmHg 94%
    01:00 +13°C° 0 mm 2 m/s 710 mmHg 94%
    02:00 +13°C° 0 mm 2 m/s 710 mmHg 94%
    03:00 +13°C° 0 mm 2 m/s 709 mmHg 94%
    04:00 +13°C° 0.2 mm 2 m/s 709 mmHg 94%
    05:00 +13°C° 0.2 mm 1 m/s 709 mmHg 94%
    06:00 +13°C° 0.2 mm 1 m/s 709 mmHg 94%
    07:00 +13°C° 3.3 mm 1 m/s 709 mmHg 94%
    08:00 +13°C° 3.3 mm 1 m/s 709 mmHg 95%
    09:00 +13°C° 3.3 mm 1 m/s 709 mmHg 95%
    10:00 +14°C° 0.1 mm 2 m/s 710 mmHg 92%
    11:00 +15°C° 0.1 mm 2 m/s 710 mmHg 89%
    12:00 +16°C° 0.1 mm 3 m/s 710 mmHg 86%
    13:00 +14°C° 0.1 mm 3 m/s 710 mmHg 84%
    14:00 +14°C° 0.1 mm 3 m/s 710 mmHg 82%
    15:00 +14°C° 0.1 mm 4 m/s 711 mmHg 80%
    16:00 +13°C° 0 mm 3 m/s 711 mmHg 81%
    17:00 +12°C° 0 mm 3 m/s 712 mmHg 82%
    18:00 +12°C° 0 mm 2 m/s 712 mmHg 83%
    19:00 +10°C° 0.1 mm 2 m/s 712 mmHg 83%
    20:00 +10°C° 0.1 mm 2 m/s 713 mmHg 84%
    21:00 +9°C° 0.1 mm 2 m/s 713 mmHg 84%
    22:00 +10°C° 0.2 mm 1 m/s 713 mmHg 85%
    23:00 +9°C° 0.2 mm 1 m/s 713 mmHg 86%
    Mostrar mais